SB KEPS @ AMSAT $ORB13052.N 2Line Orbital Elements 13052.AMSAT
HR AMSAT ORBITAL ELEMENTS FOR AMATEUR SATELLITES IN NASA FORMAT FROM WA5QGD FORT WORTH,TX February 21, 2013 BID: ORB13052.N
DECODE 2-LINE ELSETS WITH THE FOLLOWING KEY: 1 AAAAAU 00 0 0 BBBBB.BBBBBBBB .CCCCCCCC 00000-0 00000-0 0 DDDZ 2 AAAAA EEE.EEEE FFF.FFFF GGGGGGG HHH.HHHH III.IIII JJ.JJJJJJJJKKKKKZ KEY: A-CATALOGNUM B-EPOCHTIME C-DECAY D-ELSETNUM E-INCLINATION F-RAAN G-ECCENTRICITY H-ARGPERIGEE I-MNANOM J-MNMOTION K-ORBITNUM Z-CHECKSUM
TO ALL RADIO AMATEURS BT
AO-07 1 07530U 74089B 13052.56984245 -.00000063 00000-0 -12764-3 0 6134 2 07530 101.4238 046.3102 0012126 152.7091 355.0497 12.53594865751294 FO-29 1 24278U 96046B 13052.76617470 -.00000077 00000-0 -45463-4 0 541 2 24278 098.5713 126.6970 0351229 103.1684 260.8887 13.52996293815703 SO-33 1 25509U 98061B 13051.85976736 .00000179 00000-0 21092-4 0 4378 2 25509 031.4356 006.1949 0351943 219.5935 165.1497 14.28963105748240 RS-22 1 27939U 03042A 13052.57018818 .00000383 00000-0 80973-4 0 1827 2 27939 097.7993 246.4515 0012942 190.2752 169.8201 14.64325890502373 VO-52 1 28650U 05017B 13052.11595147 .00001123 00000-0 14170-3 0 3490 2 28650 097.5763 076.6531 0025102 304.8368 055.0451 14.83581740421873 HO-68 1 36122U 09072B 13052.67121417 -.00000044 00000-0 00000 0 0 3040 2 36122 100.3234 112.5744 0007194 258.6894 101.3411 13.16302103153219 UO-11 1 14781U 84021B 13052.22370965 .00000428 00000-0 62309-4 0 1070 2 14781 097.9176 115.1217 0007554 308.8436 051.2102 14.80758780556772 AO-16 1 20439U 90005D 13051.89257782 .00000055 00000-0 36438-4 0 6805 2 20439 098.4614 354.6853 0011844 139.2016 252.9466 14.32139938205594 LO-19 1 20442U 90005G 13052.85658359 .00000065 00000-0 39674-4 0 6133 2 20442 098.4302 357.7843 0012952 128.4681 265.4225 14.32353499205923 AO-27 1 22825U 93061C 13052.85287308 .00000066 00000-0 42807-4 0 3193 2 22825 098.6079 358.1692 0007308 264.8564 128.9101 14.29534759 12157 IO-26 1 22826U 93061D 13051.89535575 .00000064 00000-0 42114-4 0 757 2 22826 098.6014 357.5350 0007814 260.9745 131.2800 14.29815671 12148 GO-32 1 25397U 98043D 13052.18698185 .00000033 00000-0 32870-4 0 44 2 25397 098.3975 025.0782 0000374 306.6067 053.5096 14.23322612759448 NO-44 1 26931U 01043C 13052.75702185 .00000381 00000-0 17976-3 0 2656 2 26931 067.0508 197.0693 0004921 275.0822 084.9724 14.29891124594920 SO-50 1 27607U 02058C 13051.65855880 .00000199 00000-0 51668-4 0 9979 2 27607 064.5560 258.8544 0061160 195.6707 164.2487 14.72766799546550 CO-55 1 27844U 03031E 13052.88414941 .00000149 00000-0 88820-4 0 5857 2 27844 098.7033 063.6295 0009284 216.0204 216.0814 14.21162158500352 CO-57 1 27848U 03031J 13051.53915736 .00000147 00000-0 87999-4 0 5315 2 27848 098.7117 061.7559 0009033 226.1892 280.0325 14.20894740500095 AO-51 1 28375U 04025K 13051.93972414 .00000141 00000-0 54956-4 0 4911 2 28375 098.1839 012.1543 0084385 008.3157 351.9416 14.41069147454596 CP3 1 31129U 07012N 13051.97930672 .00000455 00000-0 11207-3 0 3968 2 31129 097.8893 051.2279 0101410 069.1084 292.0929 14.53464513310118 CO-65 1 32785U 08021C 13052.73469975 .00000887 00000-0 11377-3 0 5583 2 32785 097.7664 113.5007 0013271 329.6849 177.5697 14.83595580260758 PRISM 1 33493U 09002B 13052.84235647 .00002801 00000-0 33188-3 0 5570 2 33493 098.2006 206.1332 0018290 204.6942 155.3409 14.85295770220798 SOHLA-1 1 33496U 09002E 13052.79491412 .00000294 00000-0 57041-4 0 9754 2 33496 098.1218 169.2159 0005612 337.6465 184.9346 14.70191077218910 SO-67 1 35870U 09049F 13052.87451536 .00003432 00000-0 13634-3 0 8143 2 35870 097.2056 085.7658 0002904 047.6972 077.3328 15.25963854190663 TISAT-1 1 36799U 10035E 13052.81602295 .00000581 00000-0 78383-4 0 8285 2 36799 098.0405 136.8434 0015807 084.7907 275.5070 14.82869537141473 STUDSAT 1 36801U 10035G 13052.28051697 .00004180 00000-0 47283-3 0 5903 2 36801 098.0538 138.4823 0012865 067.9895 292.2685 14.86959996141509 FO-69 1 37227U 0 13051.42898468 .00000519 00000-0 80704-4 0 00685 2 37227 071.9723 124.0466 0018281 222.0544 137.9148 14.77376835011662 FO-70 1 37380U 0 13051.27387721 .00000020 00000-0 10800-4 0 00714 2 37380 071.9753 125.2665 0018795 219.1865 140.7787 14.77117187011712 ALMASAT-1 1 38078U 12006B 13052.67493173 .00018862 00000-0 47852-3 0 250 2 38078 069.4844 107.8728 0720881 294.0939 058.6424 14.19193418 52825 XATCOBEO 1 38082U 12006F 13052.57123264 .00050752 34892-5 10694-2 0 9421 2 38082 069.4855 094.0329 0638832 286.4092 066.7803 14.40617322 53196 NOAA-10 1 16969U 86073A 13052.12304030 .00000055 00000-0 40029-4 0 2520 2 16969 098.5575 082.4266 0011803 220.7414 187.6845 14.27615702375383 NOAA-11 1 19531U 88089A 13052.20167171 -.00000006 00000-0 19126-4 0 2520 2 19531 098.7157 137.9482 0010655 228.1527 184.6631 14.15002596259723 NOAA-12 1 21263U 91032A 13052.35991283 .00000022 00000-0 28172-4 0 7288 2 21263 098.7111 078.6044 0013304 193.8800 166.2018 14.25547499132057 MET-3/5 1 21655U 91056A 13051.86765315 -.00000120 00000-0 -34442-3 0 6252 2 21655 082.5608 336.4839 0014350 063.5866 296.6728 13.17046507 34622 MET-2/21 1 22782U 93055A 13052.87987406 .00000051 00000-0 32827-4 0 6701 2 22782 082.5510 194.3922 0023164 170.0807 354.9547 13.83699586983693 OKEAN-4 1 23317U 94066A 13052.23718690 .00000837 00000-0 96889-4 0 1453 2 23317 082.5418 158.2910 0019676 248.5640 111.3478 14.84257925991742 NOAA-14 1 23455U 94089A 13052.35810269 .00000013 00000-0 29961-4 0 2105 2 23455 098.8115 138.5297 0009255 332.7813 027.2872 14.13893417936003 NOAA-15 1 25338U 98030A 13052.22725096 .00000051 00000-0 40594-4 0 6286 2 25338 098.7146 043.1127 0011563 104.0130 256.2370 14.25179310768325 RESURS 1 25394U 98043A 13051.88189633 -.00000024 00000-0 73258-5 0 3118 2 25394 098.3497 033.3729 0001071 175.2104 216.8857 14.24321076759807 FENGYUN1 1 25730U 99025A 13051.49365856 .00001987 00000-0 11440-2 0 8118 2 25730 098.8689 012.5227 0024469 017.4046 119.9072 14.10196910709594 OKEAN-0 1 25860U 99039A 13052.88826141 .00000341 00000-0 58845-4 0 8744 2 25860 097.9763 016.9896 0001936 122.3884 294.0679 14.74483592731364 NOAA-16 1 26536U 00055A 13052.25597444 .00000409 00000-0 24423-3 0 1064 2 26536 099.0587 103.7882 0011305 102.6487 257.5961 14.12842356640202 NOAA-17 1 27453U 02032A 13052.23571260 .00000097 00000-0 59233-4 0 303 2 27453 098.3181 072.4342 0012205 142.1681 218.0380 14.24541125554216 NOAA-18 1 28654U 05018A 13052.19101675 -.00000034 00000-0 63795-5 0 5146 2 28654 099.0827 018.8266 0014279 171.7668 188.3772 14.11772006399693 NOAA-19 1 33591U 09005A 13052.25492660 .00000255 00000-0 16476-3 0 7010 2 33591 098.8909 355.2969 0014661 040.1560 320.0713 14.11460466208143 HUBBLE 1 20580U 90037B 13052.14741195 .00001399 00000-0 88364-4 0 1804 2 20580 028.4710 313.3562 0003602 192.6782 167.3720 15.03301002 52219 ISS 1 25544U 98067A 13052.78628944 .00013913 00000-0 22794-3 0 2682 2 25544 051.6496 321.4988 0012185 301.2326 158.4850 15.52697110816780 CO-58 1 28895U 05043F 13051.65689662 .00000319 00000-0 73935-4 0 4092 2 28895 097.8833 272.5778 0018612 088.5573 271.7766 14.60968238389939 FALCON 1 30776U 07006E 13051.86055906 .00003909 00000-0 24069-3 0 5558 2 30776 035.4303 195.5857 0001360 002.6032 129.5516 15.09600340327825 MAST 1 31126U 07012K 13052.01249611 .00000433 00000-0 10600-3 0 6883 2 31126 097.8770 054.5984 0094488 055.3421 305.6638 14.54437105310437 CAPE1 1 31130U 07012P 13051.49197478 .00000424 00000-0 10543-3 0 7003 2 31130 097.8904 050.4279 0101989 071.6020 289.6220 14.53304665309837 COMPASS 1 32787U 08021E 13052.19943182 .00001585 00000-0 19176-3 0 5493 2 32787 097.7670 113.7302 0013685 328.5245 064.5072 14.85003629260756 AAUSAT2 1 32788U 08021F 13052.18142642 .00001588 00000-0 19023-3 0 5400 2 32788 097.7677 114.2525 0013245 328.1692 099.4445 14.85420856260780 DO-64 1 32789U 08021G 13052.74195017 .00003260 00000-0 36387-3 0 5644 2 32789 097.7824 117.9356 0012750 320.5694 189.7115 14.87635691260958 CO-66 1 32791U 08021J 13052.72806671 .00001163 00000-0 14503-3 0 5365 2 32791 097.7674 113.7483 0014150 327.1898 179.7299 14.84238400260747 RS-30 1 32953U 08025A 13052.72193748 .00000010 00000-0 00000 0 0 6143 2 32953 082.5042 139.9935 0020032 123.4938 236.8061 12.43031552215562 METEOR-M 1 35865U 09049A 13052.67986510 -.00000034 00000-0 39144-5 0 2315 2 35865 098.6187 107.8576 0003277 056.0097 304.1389 14.21879995178052 RS-38 1 35869U 09049E 13052.73252895 -.00000287 00000-0 -10999-3 0 2022 2 35869 098.6122 107.8565 0005396 054.5174 305.6484 14.22112647178086 JUGNU 1 37839U 11058B 13051.97839409 .00000620 00000-0 19019-3 0 3360 2 37839 019.9597 290.9456 0018873 084.0883 276.1662 14.12125710 70455 SRMSAT 1 37841U 11058D 13051.80627389 .00000264 00000-0 00000 0 0 3378 2 37841 019.9730 301.7252 0011929 039.8635 320.2606 14.10201151 70327 RAX-2 1 37853U 11061D 13052.45053391 .00002142 00000-0 17241-3 0 4325 2 37853 101.7127 212.5761 0239358 358.7851 001.2736 14.82376414 71296 AUBIESAT 1 37854U 11061E 13051.98650476 .00002474 00000-0 19392-3 0 4305 2 37854 101.7162 212.5365 0239428 359.0255 001.0443 14.82975685 71238 HRBE 1 37855U 11061F 13052.43927027 .00001689 00000-0 13741-3 0 4260 2 37855 101.7125 213.0331 0238641 358.3570 001.6810 14.82705660 71299 RS-39 1 38051U 11062C 13052.77141204 .00011657 00000-0 41462-3 0 1930 2 38051 051.6371 046.1912 0011522 205.7701 159.9338 15.29359257 60101 E-STAR 1 38079U 12006C 13052.88017930 .00040266 33116-5 87179-3 0 9153 2 38079 069.4855 096.6377 0664761 287.9731 065.0009 14.34652784 53148 GOLIAT 1 38085U 12006J 13052.53083128 .00037559 32700-5 82185-3 0 8491 2 38085 069.4858 098.8525 0671530 289.1621 063.8061 14.33030652 53058 HORYU-2 1 38340U 12025D 13052.85815023 .00001010 00000-0 17434-3 0 3797 2 38340 098.2039 359.6188 0011669 259.8740 100.1150 14.70627945 41164 RS-40 1 38736U 12041D 13052.57190397 .00000010 00000-0 00000 0 0 1933 2 38736 082.4757 227.2175 0020412 211.8874 148.0970 12.43229515 25884 PROITERES 1 38756U 12047B 13052.72533966 .00000250 00000-0 46043-4 0 5304 2 38756 098.2629 127.6120 0013733 113.3916 246.8706 14.74081312 24388 RAIKO 1 38852U 98067CN 13051.90849292 .00040980 00000-0 47237-3 0 1482 2 38852 051.6464 321.0752 0012063 283.9844 075.9791 15.61448658 21621 FITSAT 1 1 38853U 98067CP 13052.90554585 .00052201 00000-0 54834-3 0 1460 2 38853 051.6479 315.0033 0008648 299.9984 060.0119 15.63769651 21843 TechEdSat 1 38854U 98067CQ 13052.24536464 .00097067 00000-0 79685-3 0 1655 2 38854 051.6433 315.8124 0006199 296.5361 063.5001 15.69647499 21775 F 1 1 38855U 98067CR 13052.14287525 .00089343 00000-0 75750-3 0 1675 2 38855 051.6438 316.6251 0006290 295.9703 064.0629 15.68898872 21646 WeWish 1 38856U 98067CS 13052.88288455 .00407847 72787-4 13675-2 0 1912 2 38856 051.6375 306.4880 0006812 237.6346 122.4001 15.89539107 21849 /EX
participants (1)
-
Ray Hoad